Temp
-4 -4 -5 -7 -8 -8 -8 -8 -7 -7 -7 -6 -7 -6 -6 -7 -7 -7 -7 -7 -8 -8 -7 -7 -7 -6 -6 -6 -6 -6 -6 -7 -7 -7 -7 -7 -8 -7 -8 -8 -7 -8 -8 -8
-5 -4 -5 -7 -8 -8 -8 -8 -8 -8 -7 -6 -6 -7 -7 -7 -7 -7 -7 -8 -8 -8 -7 -7 -7 -7 -6 -6 -6 -6 -7 -7 -7 -7 -8 -8 -8 -7 -7 -7 -7 -7 -8 -8
-5 -5 -5 -6 -7 -8 -8 -8 -8 -8 -7 -7 -6 -6 -7 -6 -7 -7 -7 -7 -8 -8 -7 -6 -7 -6 -6 -6 -6 -6 -6 -7 -7 -7 -7 -8 -8 -7 -7 -8 -7 -7 -7 -7
-5 -5 -6 -6 -6 -7 -8 -8 -9 -8 -8 -7 -6 -7 -7 -7 -7 -7 -7 -7 -7 -7 -7 -6 -6 -7 -6 -6 -6 -6 -6 -6 -6 -6 -7 -7 -7 -7 -7 -7 -7 -7 -7 -7
-6 -5 -5 -5 -6 -6 -7 -9 -9 -8 -8 -7 -6 -7 -7 -7 -7 -7 -7 -7 -7 -7 -7 -6 -6 -6 -6 -6 -6 -6 -6 -6 -7 -7 -7 -7 -7 -7 -7 -7 -7 -7 -7 -7
-6 -6 -5 -6 -6 -6 -7 -8 -9 -8 -8 -6 -7 -8 -7 -7 -7 -7 -6 -6 -7 -7 -7 -6 -6 -7 -6 -6 -6 -7 -6 -6 -7 -7 -7 -7 -7 -8 -8 -8 -8 -8 -8 -7
-6 -6 -6 -6 -6 -6 -7 -7 -8 -8 -8 -6 -7 -8 -7 -7 -7 -7 -7 -6 -7 -6 -7 -7 -6 -6 -7 -6 -6 -7 -7 -7 -7 -8 -8 -8 -8 -8 -8 -8 -8 -8 -8 -7
-7 -7 -7 -7 -7 -8 -8 -8 -8 -7 -7 -7 -7 -7 -7 -7 -7 -7 -7 -6 -6 -6 -8 -8 -8 -8 -7 -6 -6 -7 -7 -7 -7 -8 -8 -9 -9 -8 -8 -8 -8 -8 -9 -8
-7 -8 -7 -8 -8 -8 -8 -7 -7 -6 -6 -6 -6 -7 -8 -7 -7 -7 -7 -6 -6 -6 -8 -8 -8 -8 -8 -7 -7 -6 -7 -7 -7 -7 -8 -8 -8 -8 -8 -8 -9 -9 -8 -8
-8 -8 -8 -8 -8 -8 -7 -7 -7 -7 -7 -7 -7 -8 -8 -7 -7 -7 -7 -6 -6 -7 -7 -7 -7 -8 -8 -7 -7 -6 -6 -7 -7 -7 -7 -7 -7 -7 -8 -9 -9 -8 -8 -8
-8 -8 -8 -8 -8 -8 -8 -7 -8 -7 -7 -7 -7 -8 -8 -7 -7 -7 -7 -7 -6 -7 -7 -7 -7 -7 -8 -7 -7 -7 -6 -6 -6 -7 -7 -7 -7 -7 -7 -9 -8 -8 -8 -8
-8 -8 -8 -8 -8 -8 -8 -8 -8 -8 -7 -7 -8 -8 -8 -8 -8 -8 -7 -7 -7 -7 -8 -7 -7 -7 -6 -6 -7 -7 -7 -6 -7 -7 -6 -8 -7 -7 -7 -8 -9 -7 -6 -7
-8 -8 -8 -8 -8 -8 -8 -8 -8 -8 -8 -8 -8 -8 -8 -8 -8 -8 -8 -7 -7 -7 -6 -6 -6 -7 -7 -7 -7 -7 -8 -7 -7 -8 -8 -8 -9 -7 -7 -7 -8 -7 -7 -7
-9 -9 -8 -8 -8 -8 -8 -8 -8 -8 -8 -8 -8 -8 -8 -8 -8 -8 -8 -8 -7 -7 -7 -6 -6 -7 -7 -8 -8 -8 -7 -7 -7 -7 -8 -7 -7 -7 -7 -7 -8 -7 -7 -7
-9 -9 -9 -9 -8 -9 -9 -8 -8 -9 -9 -8 -8 -8 -8 -8 -8 -8 -8 -8 -8 -7 -7 -6 -7 -7 -8 -8 -8 -7 -7 -8 -7 -7 -7 -7 -8 -8 -7 -7 -8 -8 -7 -7
-8 -9 -9 -9 -9 -9 -9 -9 -9 -9 -9 -9 -9 -8 -8 -8 -8 -8 -9 -8 -9 -8 -8 -7 -7 -8 -8 -8 -8 -8 -8 -9 -8 -8 -8 -9 -9 -8 -8 -7 -8 -8 -7 -8
-9 -9 -9 -8 -8 -8 -9 -9 -9 -9 -9 -9 -9 -9 -9 -9 -9 -9 -9 -9 -9 -9 -8 -7 -8 -8 -8 -8 -8 -9 -9 -8 -8 -9 -9 -8 -9 -9 -8 -8 -8 -8 -8 -8
-9 -9 -9 -9 -9 -9 -8 -9 -9 -9 -9 -9 -9 -9 -9 -9 -9 -9 -9 -9 -9 -9 -9 -8 -8 -8 -8 -8 -8 -8 -8 -8 -9 -8 -9 -9 -9 -9 -9 -8 -8 -8 -8 -8
-9 -9 -9 -10 -9 -9 -9 -9 -9 -9 -9 -9 -9 -9 -9 -9 -9 -8 -9 -10 -10 -10 -10 -10 -9 -9 -8 -8 -8 -8 -8 -8 -9 -9 -9 -9 -9 -9 -9 -9 -9 -9 -9 -8
-10 -9 -9 -9 -9 -9 -9 -9 -9 -9 -9 -9 -9 -9 -9 -9 -9 -9 -9 -9 -10 -10 -10 -9 -9 -9 -9 -8 -8 -9 -8 -8 -8 -9 -10 -9 -9 -9 -9 -9 -9 -9 -9 -9
-10 -10 -9 -8 -8 -8 -9 -9 -9 -9 -9 -9 -8 -8 -8 -9 -9 -10 -10 -10 -9 -9 -9 -9 -9 -9 -9 -10 -10 -9 -9 -10 -10 -10 -9 -9 -9 -9 -9 -9 -9 -9 -9 -9
-9 -10 -9 -8 -8 -8 -8 -8 -9 -9 -9 -9 -9 -8 -8 -8 -8 -8 -8 -8 -9 -9 -8 -9 -8 -8 -10 -10 -10 -10 -10 -10 -10 -10 -10 -9 -9 -7 -8 -9 -9 -9 -9 -9
-8 -8 -8 -8 -8 -8 -9 -9 -9 -9 -9 -9 -9 -9 -8 -8 -8 -7 -7 -7 -8 -8 -8 -8 -9 -9 -9 -9 -10 -11 -11 -10 -10 -10 -10 -9 -8 -5 -7 -9 -9 -10 -9 -9
-8 -8 -8 -8 -8 -8 -8 -8 -9 -9 -9 -9 -9 -8 -7 -7 -6 -7 -7 -7 -8 -8 -8 -9 -9 -10 -9 -9 -9 -9 -10 -10 -10 -10 -9 -10 -9 -9 -7 -8 -9 -10 -9 -9
-8 -7 -7 -8 -8 -8 -8 -8 -8 -9 -9 -9 -9 -8 -7 -6 -6 -7 -7 -8 -8 -8 -8 -9 -9 -9 -9 -10 -9 -9 -9 -9 -9 -9 -9 -10 -9 -9 -7 -8 -9 -10 -9 -9
-8 -8 -8 -8 -8 -8 -8 -8 -8 -8 -8 -8 -8 -8 -8 -7 -7 -7 -7 -7 -7 -8 -8 -9 -9 -9 -10 -9 -9 -9 -9 -9 -8 -8 -8 -9 -9 -8 -7 -8 -9 -9 -9 -9
Height
5898 5903 5906 5910 5912 5913 5915 5916 5917 5919 5919 5920 5918 5919 5921 5920 5919 5917 5915 5913 5911 5908 5907 5908 5908 5908 5907 5907 5904 5902 5902 5902 5903 5904 5904 5905 5907 5908 5908 5908 5907 5907 5907 5907
5897 5901 5904 5907 5909 5911 5912 5914 5916 5918 5919 5919 5916 5919 5919 5918 5918 5917 5916 5913 5910 5908 5906 5909 5908 5909 5908 5908 5908 5906 5904 5904 5905 5906 5905 5906 5908 5909 5908 5907 5906 5906 5905 5905
5894 5898 5900 5903 5905 5908 5910 5912 5915 5915 5917 5920 5918 5917 5916 5917 5917 5916 5915 5913 5910 5908 5905 5907 5908 5909 5909 5907 5907 5907 5906 5907 5907 5907 5907 5908 5909 5909 5908 5907 5905 5905 5904 5904
5890 5893 5896 5899 5901 5904 5906 5911 5912 5912 5912 5916 5916 5916 5914 5914 5914 5915 5914 5912 5911 5908 5905 5905 5906 5908 5908 5907 5906 5906 5908 5907 5907 5908 5908 5908 5908 5907 5906 5905 5905 5903 5902 5902
5888 5889 5893 5896 5900 5900 5906 5907 5909 5910 5910 5911 5912 5910 5912 5911 5911 5912 5910 5910 5910 5907 5905 5905 5905 5907 5908 5907 5906 5906 5906 5905 5905 5906 5907 5906 5905 5905 5904 5903 5903 5901 5901 5900
5882 5886 5890 5895 5895 5896 5900 5903 5905 5906 5906 5908 5908 5906 5909 5909 5909 5909 5910 5909 5909 5907 5904 5903 5903 5906 5907 5906 5906 5905 5905 5904 5904 5904 5904 5903 5902 5902 5902 5901 5902 5900 5899 5899
5880 5884 5888 5890 5892 5895 5898 5900 5902 5903 5903 5906 5905 5903 5907 5907 5907 5908 5908 5908 5906 5904 5903 5901 5901 5903 5906 5906 5905 5904 5904 5902 5901 5900 5899 5900 5899 5899 5899 5900 5899 5898 5898 5897
5877 5882 5884 5887 5891 5894 5897 5898 5900 5899 5900 5903 5900 5900 5905 5905 5906 5906 5907 5906 5904 5900 5897 5896 5896 5898 5902 5904 5904 5903 5902 5902 5901 5900 5897 5897 5897 5898 5898 5896 5896 5893 5893 5894
5874 5878 5881 5885 5888 5893 5894 5896 5896 5896 5897 5898 5898 5899 5901 5902 5904 5904 5904 5904 5901 5897 5893 5890 5891 5893 5896 5901 5901 5901 5901 5901 5901 5901 5897 5896 5895 5896 5898 5896 5892 5886 5888 5888
5873 5877 5881 5884 5888 5890 5891 5892 5892 5892 5893 5894 5895 5897 5899 5900 5901 5901 5902 5903 5899 5895 5892 5890 5890 5892 5892 5895 5898 5901 5902 5901 5899 5900 5897 5898 5898 5898 5898 5896 5889 5886 5885 5881
5873 5878 5883 5885 5885 5887 5888 5888 5889 5890 5891 5892 5893 5896 5897 5897 5898 5898 5900 5901 5898 5894 5892 5891 5891 5892 5892 5893 5898 5900 5901 5900 5898 5898 5898 5897 5896 5891 5894 5889 5884 5876 5871 5875
5875 5878 5881 5883 5884 5885 5886 5886 5887 5888 5889 5890 5891 5894 5894 5895 5895 5895 5896 5899 5896 5894 5892 5892 5890 5891 5893 5893 5896 5898 5898 5898 5895 5894 5892 5894 5890 5892 5889 5886 5884 5878 5870 5871
5874 5876 5879 5880 5883 5883 5884 5885 5885 5886 5886 5888 5890 5892 5893 5893 5893 5893 5893 5895 5895 5894 5891 5890 5890 5889 5890 5891 5894 5896 5895 5892 5892 5891 5881 5887 5886 5887 5888 5886 5881 5880 5876 5875
5871 5872 5875 5878 5880 5881 5882 5883 5883 5884 5886 5887 5888 5889 5890 5891 5892 5891 5892 5894 5895 5894 5891 5889 5888 5887 5887 5891 5893 5892 5892 5892 5890 5892 5892 5887 5883 5887 5886 5885 5883 5878 5878 5877
5867 5870 5872 5874 5876 5877 5880 5882 5882 5882 5884 5885 5886 5886 5887 5888 5890 5891 5889 5889 5892 5892 5890 5888 5886 5886 5886 5887 5890 5889 5889 5888 5886 5886 5890 5885 5881 5884 5884 5885 5883 5877 5876 5875
5866 5868 5869 5870 5872 5874 5876 5878 5879 5880 5881 5882 5882 5884 5884 5885 5885 5885 5885 5884 5885 5886 5886 5885 5884 5884 5884 5885 5886 5884 5882 5882 5882 5882 5881 5875 5877 5883 5885 5883 5881 5878 5875 5874
5863 5865 5866 5866 5868 5870 5873 5874 5876 5877 5878 5878 5877 5878 5879 5879 5879 5877 5878 5878 5879 5882 5884 5883 5882 5881 5880 5879 5880 5880 5878 5879 5879 5873 5874 5877 5875 5879 5880 5879 5876 5875 5872 5871
5858 5862 5864 5864 5865 5866 5869 5870 5872 5873 5874 5874 5873 5871 5871 5872 5872 5872 5872 5873 5874 5876 5878 5881 5881 5880 5878 5876 5877 5877 5875 5874 5873 5873 5873 5875 5875 5875 5874 5873 5872 5870 5869 5867
5853 5855 5856 5859 5861 5863 5864 5866 5868 5869 5870 5870 5869 5868 5865 5866 5865 5865 5865 5866 5868 5867 5870 5871 5874 5876 5875 5873 5873 5874 5873 5870 5868 5868 5869 5869 5869 5868 5867 5867 5867 5866 5865 5863
5848 5849 5851 5853 5855 5856 5860 5860 5861 5860 5862 5863 5862 5861 5861 5859 5858 5858 5858 5859 5859 5860 5862 5862 5862 5866 5868 5865 5865 5865 5865 5863 5863 5863 5862 5859 5858 5859 5860 5860 5860 5860 5861 5860
5841 5843 5845 5847 5848 5851 5854 5855 5855 5856 5859 5856 5855 5854 5855 5854 5853 5851 5851 5849 5849 5851 5852 5852 5853 5851 5853 5851 5851 5857 5858 5857 5855 5853 5852 5851 5851 5852 5851 5852 5853 5853 5853 5853
5837 5838 5838 5840 5841 5843 5847 5850 5851 5851 5849 5848 5847 5848 5848 5848 5845 5843 5842 5840 5841 5841 5840 5839 5839 5839 5841 5845 5838 5843 5847 5845 5844 5843 5842 5840 5839 5828 5834 5841 5845 5846 5846 5846
5830 5833 5835 5838 5838 5838 5839 5841 5843 5843 5842 5840 5840 5841 5841 5840 5838 5837 5835 5833 5830 5829 5827 5825 5826 5827 5829 5828 5831 5832 5832 5831 5832 5830 5829 5824 5825 5812 5816 5827 5835 5839 5840 5840
5824 5826 5828 5831 5833 5833 5833 5833 5834 5835 5835 5834 5833 5833 5834 5833 5830 5830 5828 5826 5823 5821 5820 5818 5817 5816 5818 5818 5818 5818 5820 5820 5819 5818 5814 5815 5813 5799 5807 5821 5827 5832 5833 5834
5820 5822 5823 5825 5825 5826 5826 5827 5827 5827 5826 5825 5825 5826 5826 5827 5825 5825 5822 5818 5816 5814 5811 5811 5810 5808 5808 5806 5805 5803 5805 5805 5804 5807 5807 5803 5802 5796 5801 5812 5820 5823 5826 5827
5813 5816 5817 5817 5818 5819 5820 5820 5820 5820 5819 5818 5818 5819 5818 5818 5818 5817 5816 5814 5810 5807 5805 5803 5800 5798 5796 5796 5796 5796 5796 5794 5793 5792 5789 5790 5787 5772 5788 5803 5810 5815 5818 5819
Wind_Speed
21 15 14 21 25 26 23 16 13 6 7 3 4 6 10 10 9 9 12 17 16 14 5 4 8 9 9 10 12 8 5 5 4 4 5 2 2 3 5 8 7 6 6 5
21 13 14 23 29 25 23 17 15 14 10 10 7 4 6 2 4 7 8 8 12 13 6 5 5 6 6 5 6 8 8 4 6 7 7 5 6 7 11 8 5 2 1 2
20 16 16 17 22 26 22 17 15 20 18 11 7 9 5 3 4 0 4 7 7 9 5 6 8 6 5 0 1 2 7 6 7 7 9 9 8 8 7 7 7 5 4 4
21 20 22 23 24 25 23 20 20 23 25 16 17 12 7 4 1 7 8 8 11 8 4 5 7 7 4 2 0 3 3 5 4 6 9 10 8 7 8 9 8 7 8 5
22 24 21 18 14 23 20 26 23 24 26 20 17 14 5 8 7 6 9 9 8 2 7 4 4 6 3 1 1 3 4 6 7 9 9 8 6 7 8 10 9 11 9 7
25 25 22 17 20 22 19 27 28 29 27 20 15 18 3 2 2 6 5 5 2 5 3 4 6 8 6 4 1 4 8 7 9 10 11 11 9 9 11 12 13 15 11 11
25 23 18 17 17 14 11 21 27 28 29 17 19 23 4 5 3 3 3 3 1 5 3 5 7 8 11 8 4 6 9 9 7 9 9 8 7 10 12 12 14 15 13 14
20 20 16 13 8 5 13 19 24 25 25 17 21 23 11 7 3 8 7 5 9 12 7 13 14 12 14 14 8 5 8 10 9 5 5 4 4 7 11 12 14 16 16 16
17 21 20 21 20 19 10 10 13 16 15 15 18 13 13 15 15 13 11 10 11 12 12 13 19 16 19 18 15 11 9 11 11 9 6 6 5 7 12 15 24 19 17 19
22 19 18 15 15 13 11 13 11 10 11 12 14 11 9 11 15 18 14 11 11 10 10 13 11 16 20 20 21 12 11 14 14 15 6 6 9 14 16 20 35 36 23 23
23 21 17 13 15 15 14 12 8 10 10 8 13 15 11 12 13 12 11 6 10 6 6 10 8 15 25 24 19 18 15 18 18 16 12 6 13 14 19 28 24 38 33 30
19 18 14 20 20 14 12 9 8 6 8 11 11 14 14 14 11 13 18 10 10 5 4 3 7 12 22 19 21 16 16 18 22 15 15 15 10 15 22 17 20 28 22 13
15 17 16 22 20 17 12 12 10 7 8 9 12 11 12 14 15 17 18 13 4 11 15 8 5 9 15 18 20 18 18 24 24 20 16 9 11 14 13 20 18 23 22 23
14 17 18 22 17 13 10 17 15 7 7 8 12 14 14 17 14 16 19 18 12 4 4 4 15 10 12 14 18 18 18 25 28 25 18 6 7 9 11 15 15 17 16 15
20 17 15 16 22 19 17 19 19 11 11 10 10 10 13 18 16 15 18 21 18 10 8 14 18 12 9 12 17 22 24 25 27 26 20 7 6 7 9 11 13 16 17 17
9 12 14 17 20 25 19 19 19 17 17 17 17 14 15 13 17 18 16 21 16 11 6 12 15 12 16 18 21 25 26 27 27 27 25 11 5 4 10 13 14 15 18 18
16 12 12 16 21 26 28 26 23 23 23 24 24 26 25 22 20 15 16 17 20 16 10 13 17 16 22 24 24 26 29 29 27 30 19 15 9 7 8 11 15 18 17 17
27 22 15 13 16 26 26 29 26 25 24 25 28 33 35 34 29 18 17 19 17 15 12 14 22 21 24 30 28 21 20 22 27 28 16 19 16 16 14 15 16 14 14 18
29 27 24 21 16 18 25 30 32 32 33 33 35 37 40 36 26 20 21 18 19 21 23 18 21 26 25 27 27 25 24 25 23 26 27 26 21 19 19 20 18 19 18 20
33 31 28 25 20 20 19 19 25 33 32 31 30 30 27 25 27 24 20 22 23 28 29 29 25 31 34 29 28 31 25 22 23 29 32 29 24 23 24 25 22 19 23 22
40 38 33 28 22 22 22 24 26 28 25 26 28 28 25 25 25 27 29 31 33 32 34 37 40 46 47 41 33 35 37 32 30 33 31 32 34 32 29 30 26 18 21 19
38 42 41 33 28 30 24 22 23 23 24 23 23 24 22 23 28 31 32 33 34 35 35 37 34 26 31 38 37 38 41 43 41 37 40 39 37 38 33 27 20 20 21 21
27 28 30 28 27 29 30 27 22 18 18 21 20 22 26 30 33 32 32 33 35 31 35 37 30 32 32 37 38 43 45 47 48 43 42 43 44 41 27 17 21 20 23 22
24 24 24 23 23 22 20 21 19 18 18 22 26 27 28 31 33 29 30 32 32 32 32 30 37 34 32 38 42 46 54 56 50 47 44 47 48 55 35 25 22 23 25 25
25 24 23 21 21 21 21 22 21 22 23 26 28 28 27 26 27 26 29 34 33 31 32 33 31 30 31 29 32 30 35 45 51 54 55 57 52 55 39 30 27 26 25 27
24 22 22 21 21 21 22 22 23 25 28 29 29 29 29 28 28 28 28 30 30 30 32 31 29 30 34 32 29 30 33 38 43 49 59 61 56 47 28 31 30 26 24 23
Wind_Direction
243 236 230 231 226 232 251 269 271 213 275 231 37 115 126 94 82 40 1 16 15 13 58 48 39 26 32 32 49 69 109 129 141 138 170 171 188 178 158 151 140 101 65 22
237 225 218 225 234 241 249 249 256 240 257 294 198 194 207 158 86 60 16 341 13 360 23 24 17 15 13 48 51 68 76 128 171 159 164 194 192 181 170 171 185 212 336 296
233 214 207 204 226 231 243 240 238 256 256 251 234 226 239 262 26 218 353 330 340 360 339 338 357 327 328 105 92 115 112 110 129 146 162 170 188 193 183 207 239 261 268 281
222 213 214 209 218 232 228 239 240 253 265 265 265 239 242 261 349 320 301 300 351 8 333 332 358 327 320 296 281 239 228 163 160 168 184 192 201 208 229 250 253 257 258 256
222 221 226 228 230 238 222 221 239 248 267 276 276 280 253 243 234 316 278 289 355 59 23 306 306 312 306 264 1 299 259 237 215 221 224 224 221 236 248 256 259 263 260 274
220 225 229 229 226 239 221 219 232 247 256 271 272 282 85 155 1 287 7 66 337 1 354 36 322 288 271 265 265 315 313 297 259 241 240 238 238 246 250 257 255 254 266 268
224 225 228 232 233 246 246 234 232 248 260 266 262 269 204 169 322 279 302 353 20 311 248 284 273 287 261 243 253 301 308 318 276 232 236 245 245 257 262 264 269 268 264 264
213 206 202 197 173 177 206 225 233 247 256 263 261 265 265 197 248 257 265 291 288 309 232 232 250 250 247 235 222 249 282 308 309 262 209 216 243 269 270 267 269 266 265 263
184 171 169 165 181 202 219 234 246 256 248 245 255 255 266 248 251 265 277 300 303 287 273 268 250 219 220 227 231 233 262 286 294 288 257 246 250 288 299 294 276 253 251 258
165 165 180 188 202 228 235 234 248 246 243 246 232 217 221 245 256 262 281 311 298 289 319 315 303 221 217 219 231 242 257 268 278 295 265 345 12 2 352 342 324 301 278 248
174 176 169 198 203 214 215 215 200 227 232 234 232 211 221 244 258 275 286 308 310 254 327 311 279 228 230 234 236 243 256 268 275 276 287 285 351 16 351 3 335 311 288 283
191 194 200 203 204 214 214 209 225 229 238 224 218 214 232 239 276 290 293 304 325 201 303 354 318 241 240 248 235 248 262 271 268 270 259 268 18 8 6 17 352 8 1 340
209 216 206 207 213 212 226 241 253 254 249 232 234 242 246 265 271 280 289 302 324 263 279 256 299 254 244 250 248 250 260 267 271 266 269 67 47 18 20 25 45 30 43 24
206 225 221 218 230 226 228 241 257 257 249 256 254 260 260 266 278 289 299 312 327 203 263 271 278 264 238 229 250 257 263 272 275 280 287 345 58 28 10 2 3 25 26 7
218 231 233 240 224 233 233 248 259 249 259 279 290 300 273 266 275 287 302 306 308 297 286 230 234 247 232 232 251 260 263 266 277 280 259 255 65 7 357 339 348 3 7 4
268 267 281 263 231 233 242 241 250 256 261 279 286 294 292 298 301 292 285 293 299 303 266 244 231 233 234 239 251 260 272 276 277 285 289 335 11 338 334 327 330 347 356 358
272 284 287 277 250 235 241 248 253 262 263 271 278 295 304 304 310 294 291 293 297 293 236 221 202 213 233 240 245 252 265 275 278 277 291 302 307 297 311 311 313 323 341 346
269 274 278 286 275 251 246 247 254 261 268 276 284 291 299 306 312 294 290 287 281 283 268 232 230 237 234 237 245 252 266 273 275 275 280 278 281 286 296 304 306 316 324 335
272 282 291 290 281 269 255 257 260 263 269 272 278 284 288 295 297 293 289 275 265 262 267 259 241 254 244 240 239 248 265 259 263 272 265 263 274 279 282 285 292 301 306 321
270 277 280 278 266 261 248 256 260 264 267 274 277 277 281 292 300 295 286 278 271 262 256 259 247 248 250 233 234 247 276 286 282 266 268 265 265 272 277 279 286 291 301 308
261 266 268 269 259 248 252 255 260 271 284 280 279 277 281 284 281 278 275 277 277 272 272 270 267 275 237 228 227 246 255 257 266 266 272 276 276 264 263 266 276 290 296 297
251 256 265 274 277 279 274 265 265 274 285 280 277 274 267 269 274 278 279 280 280 284 284 284 290 283 266 255 230 236 246 251 254 260 261 263 264 241 237 243 259 268 288 297
250 251 259 267 274 277 276 275 277 276 274 274 266 264 263 268 273 278 286 289 294 292 290 292 287 274 265 266 266 239 243 244 249 257 259 257 262 239 207 226 239 267 282 291
250 252 255 261 266 270 270 274 278 275 273 267 263 257 259 267 277 282 286 290 290 290 293 282 282 279 265 262 258 261 251 255 255 261 265 272 272 266 239 223 235 260 271 282
261 262 264 263 264 265 266 265 265 264 262 264 266 269 266 269 277 280 282 288 293 295 296 296 292 288 284 277 273 273 261 258 263 264 268 267 268 274 203 210 235 253 271 276
262 266 267 268 271 273 271 268 264 262 262 264 267 269 272 275 275 274 276 285 290 290 296 297 289 290 290 287 284 279 276 273 270 270 274 274 263 243 225 222 235 245 262 276